Weather in Salavat

Russia / Republic of Bashkortostan     53°21′41″N   55°55′28″E
temp.,
°C
wind,
m/s
gust,
m/s
humid.,
%
clouds,
%
prec.,
mm/h
press.,
hPa
HPBL,
m
27 february, sat
sat2723:00−19sse6148877 0.0 1021426
02:00−18sse7158987 0.0 1018439
05:00−16sse9178893 0.0 1014573
08:00−14sse101993100 2.1 1010654
11:00−12sse101792100 4.1 1007668
14:00−8sse81491100 0.8 1004672
17:00−5sse61194100 1.3 1003536
20:00−5sse4995100 0.6 1001297
28 february, sun
sun2823:00−4sse359798 1.3 1001199
02:00−4se2497100 1.0 1000108
05:00−3s3798100 2.1 999321
08:00−2s3797100 1.3 998340
11:00−1sw3697100 2.2 999392
14:00−1sw46100100 0.8 1000390
17:00−4nw3696100 1.8 1002282
20:00−10nw249699 0.5 1005126
1 march, mon
mon123:00−12nw229795 0.6 100832
02:00−13wnw1197100 0.1 101120
05:00−14nnw229797 0.3 101230
08:00−16nnw229790 0.3 101435
11:00−14nnw229390 0.4 1016242
14:00−12nw2391100 0.2 1017365
17:00−13nnw3494100 0.3 1018323
20:00−18nnw239899 0.1 101959
2 march, tue
tue223:00−21nw1210099 0.1 102120
02:00−23wnw11100100 0.0 102020
05:00−24ssw01100100 0.1 102120
08:00−24s22100100 0.0 102020
11:00−19s359696 0.0 1019241
14:00−16ssw579394 0.0 1017363
17:00−16s6109394 0.0 1015374
20:00−18s6129499 0.0 1015390
3 march, wed
wed323:00−17sse51395100 0.4 1013425
02:00−17sse51295100 0.4 1010392
05:00−15sse51395100 0.9 1008388
08:00−11sse41294100 0.6 1005429
11:00−4s61393100 0.9 1003710
14:00−1s71195100 0.6 1001844
17:00−1ssw5996100 1.6 1001713
20:00−2ssw3698100 0.9 1000258